Time,TemperatureF,DewpointF,PressureIn,WindDirection,WindDirectionDegrees,WindSpeedMPH,WindSpeedGustMPH,Humidity,HourlyPrecipIn,Conditions,Clouds,dailyrainin,SoftwareType,DateUTC
2013-02-04 00:03:00,37.0,22.0,30.06,NW,326,3.0,10.0,55,0.00,,,0.00,,2013-02-04 05:03:00,
2013-02-04 00:12:00,37.0,22.0,30.06,NW,326,3.0,10.0,55,0.00,,,0.00,,2013-02-04 05:12:00,
2013-02-04 00:22:00,36.0,22.0,30.06,NW,321,4.0,9.0,56,0.00,,,0.00,,2013-02-04 05:22:00,
2013-02-04 00:33:00,36.0,22.0,30.06,NNW,333,2.0,8.0,56,0.00,,,0.00,,2013-02-04 05:33:00,
2013-02-04 00:42:00,36.0,22.0,30.06,NNW,333,2.0,8.0,56,0.00,,,0.00,,2013-02-04 05:42:00,
2013-02-04 00:52:00,35.0,22.0,30.06,NW,322,0.0,6.0,59,0.00,,,0.00,,2013-02-04 05:52:00,
2013-02-04 01:02:00,35.0,23.0,30.06,NW,322,0.0,2.0,60,0.00,,,0.00,,2013-02-04 06:02:00,
2013-02-04 01:11:00,35.0,23.0,30.06,NW,322,0.0,2.0,60,0.00,,,0.00,,2013-02-04 06:11:00,
2013-02-04 01:21:00,34.0,22.0,30.06,NNW,331,2.0,5.0,60,0.00,,,0.00,,2013-02-04 06:21:00,
2013-02-04 01:32:00,34.0,22.0,30.06,NNW,339,2.0,8.0,60,0.00,,,0.00,,2013-02-04 06:32:00,
2013-02-04 01:42:00,34.0,22.0,30.06,NNW,339,2.0,8.0,60,0.00,,,0.00,,2013-02-04 06:42:00,
2013-02-04 01:52:00,34.0,22.0,30.08,NNW,341,3.0,7.0,60,0.00,,,0.00,,2013-02-04 06:52:00,
2013-02-04 02:02:00,34.0,22.0,30.08,NNW,342,1.0,8.0,60,0.00,,,0.00,,2013-02-04 07:02:00,
2013-02-04 02:11:00,34.0,22.0,30.08,NNW,342,1.0,8.0,60,0.00,,,0.00,,2013-02-04 07:11:00,
2013-02-04 02:21:00,32.0,22.0,30.07,NNW,342,1.0,2.0,65,0.00,,,0.00,,2013-02-04 07:21:00,
2013-02-04 02:32:00,31.0,21.0,30.08,NNW,342,0.0,1.0,67,0.00,,,0.00,,2013-02-04 07:32:00,
2013-02-04 02:42:00,31.0,21.0,30.08,NNW,342,0.0,1.0,67,0.00,,,0.00,,2013-02-04 07:42:00,
2013-02-04 02:52:00,31.0,22.0,30.09,NNW,342,0.0,0.0,68,0.00,,,0.00,,2013-02-04 07:52:00,
2013-02-04 03:01:00,30.0,21.0,30.08,NNW,342,0.0,1.0,69,0.00,,,0.00,,2013-02-04 08:01:00,
2013-02-04 03:11:00,30.0,21.0,30.08,NNW,342,0.0,1.0,69,0.00,,,0.00,,2013-02-04 08:11:00,
2013-02-04 03:21:00,30.0,21.0,30.08,NNW,342,1.0,3.0,70,0.00,,,0.00,,2013-02-04 08:21:00,
2013-02-04 03:32:00,30.0,21.0,30.08,NNW,340,2.0,4.0,69,0.00,,,0.00,,2013-02-04 08:32:00,
2013-02-04 03:42:00,30.0,21.0,30.08,NNW,340,2.0,4.0,69,0.00,,,0.00,,2013-02-04 08:42:00,
2013-02-04 03:52:00,31.0,22.0,30.07,NW,321,0.0,1.0,69,0.00,,,0.00,,2013-02-04 08:52:00,
2013-02-04 04:02:00,30.0,22.0,30.08,NW,321,1.0,2.0,72,0.00,,,0.00,,2013-02-04 09:02:00,
2013-02-04 04:11:00,30.0,22.0,30.08,NW,321,1.0,2.0,72,0.00,,,0.00,,2013-02-04 09:11:00,
2013-02-04 04:21:00,28.0,21.0,30.08,NW,321,0.0,2.0,75,0.00,,,0.00,,2013-02-04 09:21:00,
2013-02-04 04:32:00,28.0,21.0,30.08,NW,321,0.0,1.0,74,0.00,,,0.00,,2013-02-04 09:32:00,
2013-02-04 04:42:00,28.0,21.0,30.08,NW,321,0.0,1.0,74,0.00,,,0.00,,2013-02-04 09:42:00,
2013-02-04 04:52:00,28.0,22.0,30.09,NW,321,0.0,1.0,77,0.00,,,0.00,,2013-02-04 09:52:00,
2013-02-04 05:01:00,28.0,23.0,30.09,NW,321,0.0,1.0,80,0.00,,,0.00,,2013-02-04 10:01:00,
2013-02-04 05:11:00,28.0,23.0,30.09,NW,321,0.0,1.0,80,0.00,,,0.00,,2013-02-04 10:11:00,
2013-02-04 05:21:00,28.0,23.0,30.09,NW,321,2.0,3.0,80,0.00,,,0.00,,2013-02-04 10:21:00,
2013-02-04 05:32:00,28.0,23.0,30.09,NW,321,0.0,2.0,80,0.00,,,0.00,,2013-02-04 10:32:00,
2013-02-04 05:42:00,28.0,23.0,30.09,NW,321,0.0,2.0,80,0.00,,,0.00,,2013-02-04 10:42:00,
2013-02-04 05:52:00,28.0,23.0,30.09,NW,321,0.0,1.0,81,0.00,,,0.00,,2013-02-04 10:52:00,
2013-02-04 06:02:00,28.0,23.0,30.09,NW,321,0.0,2.0,82,0.00,,,0.00,,2013-02-04 11:02:00,
2013-02-04 06:11:00,28.0,23.0,30.09,NW,321,0.0,2.0,82,0.00,,,0.00,,2013-02-04 11:11:00,
2013-02-04 06:22:00,28.0,24.0,30.09,NW,321,1.0,2.0,84,0.00,,,0.00,,2013-02-04 11:22:00,
2013-02-04 06:32:00,28.0,24.0,30.09,NW,321,0.0,2.0,84,0.00,,,0.00,,2013-02-04 11:32:00,
2013-02-04 06:42:00,28.0,24.0,30.09,NW,321,0.0,2.0,84,0.00,,,0.00,,2013-02-04 11:42:00,
2013-02-04 06:52:00,28.0,24.0,30.10,NW,321,0.0,2.0,83,0.00,,,0.00,,2013-02-04 11:52:00,
2013-02-04 07:02:00,28.0,23.0,30.10,NW,321,0.0,0.0,82,0.00,,,0.00,,2013-02-04 12:02:00,
2013-02-04 07:12:00,28.0,23.0,30.10,NW,321,0.0,0.0,82,0.00,,,0.00,,2013-02-04 12:12:00,
2013-02-04 07:22:00,29.0,25.0,30.11,NW,321,0.0,1.0,83,0.00,,,0.00,,2013-02-04 12:22:00,
2013-02-04 07:32:00,29.0,25.0,30.11,NW,321,0.0,2.0,84,0.00,,,0.00,,2013-02-04 12:32:00,
2013-02-04 07:42:00,29.0,25.0,30.11,NW,321,0.0,2.0,84,0.00,,,0.00,,2013-02-04 12:42:00,
2013-02-04 07:53:00,29.0,25.0,30.12,NW,321,0.0,1.0,85,0.00,,,0.00,,2013-02-04 12:53:00,
2013-02-04 08:03:00,29.0,23.0,30.12,NW,321,0.0,1.0,79,0.00,,,0.00,,2013-02-04 13:03:00,
2013-02-04 08:12:00,30.0,25.0,30.13,NW,321,0.0,1.0,82,0.00,,,0.00,,2013-02-04 13:12:00,
2013-02-04 08:22:00,30.0,25.0,30.13,NW,321,0.0,1.0,82,0.00,,,0.00,,2013-02-04 13:22:00,
2013-02-04 08:33:00,30.0,24.0,30.15,NW,321,0.0,0.0,79,0.00,,,0.00,,2013-02-04 13:33:00,
2013-02-04 08:42:00,30.0,24.0,30.15,NW,321,0.0,0.0,79,0.00,,,0.00,,2013-02-04 13:42:00,
2013-02-04 08:52:00,30.0,25.0,30.16,NW,321,0.0,1.0,83,0.00,,,0.00,,2013-02-04 13:52:00,
2013-02-04 09:03:00,31.0,27.0,30.16,NW,321,0.0,1.0,84,0.00,,,0.00,,2013-02-04 14:03:00,
2013-02-04 09:12:00,31.0,27.0,30.16,NW,321,0.0,1.0,84,0.00,,,0.00,,2013-02-04 14:12:00,
2013-02-04 09:23:00,34.0,26.0,30.16,SSW,202,2.0,3.0,71,0.00,,,0.00,,2013-02-04 14:23:00,
2013-02-04 09:33:00,36.0,26.0,30.15,SSW,202,1.0,2.0,66,0.00,,,0.00,,2013-02-04 14:33:00,
2013-02-04 09:52:00,37.0,25.0,30.16,SSW,202,0.0,1.0,61,0.00,,,0.00,,2013-02-04 14:52:00,
2013-02-04 10:03:00,38.0,26.0,30.17,SSW,202,1.0,3.0,61,0.00,,,0.00,,2013-02-04 15:03:00,
2013-02-04 10:23:00,38.0,25.0,30.17,SSE,167,2.0,4.0,60,0.00,,,0.00,,2013-02-04 15:23:00,
2013-02-04 10:33:00,39.0,25.0,30.17,South,186,1.0,3.0,57,0.00,,,0.00,,2013-02-04 15:33:00,
2013-02-04 10:43:00,39.0,25.0,30.17,South,186,1.0,3.0,57,0.00,,,0.00,,2013-02-04 15:43:00,
2013-02-04 10:53:00,40.0,26.0,30.18,South,189,0.0,3.0,58,0.00,,,0.00,,2013-02-04 15:53:00,
2013-02-04 11:03:00,40.0,26.0,30.18,South,190,1.0,2.0,57,0.00,,,0.00,,2013-02-04 16:03:00,
2013-02-04 11:11:00,40.0,26.0,30.18,South,190,1.0,2.0,57,0.00,,,0.00,,2013-02-04 16:11:00,
2013-02-04 11:23:00,41.0,25.0,30.16,South,172,0.0,8.0,53,0.00,,,0.00,,2013-02-04 16:23:00,
2013-02-04 11:33:00,41.0,25.0,30.16,South,170,2.0,5.0,53,0.00,,,0.00,,2013-02-04 16:33:00,
2013-02-04 11:43:00,41.0,25.0,30.16,South,170,2.0,5.0,53,0.00,,,0.00,,2013-02-04 16:43:00,
2013-02-04 11:52:00,42.0,24.0,30.16,South,185,3.0,5.0,49,0.00,,,0.00,,2013-02-04 16:52:00,
2013-02-04 12:02:00,43.0,26.0,30.16,South,182,3.0,6.0,51,0.00,,,0.00,,2013-02-04 17:02:00,
2013-02-04 12:11:00,43.0,26.0,30.16,South,182,3.0,6.0,51,0.00,,,0.00,,2013-02-04 17:11:00,
2013-02-04 12:21:00,44.0,27.0,30.15,SSW,200,2.0,12.0,50,0.00,,,0.00,,2013-02-04 17:21:00,
2013-02-04 12:32:00,45.0,26.0,30.14,South,185,7.0,9.0,47,0.00,,,0.00,,2013-02-04 17:32:00,
2013-02-04 12:42:00,45.0,26.0,30.14,South,185,7.0,9.0,47,0.00,,,0.00,,2013-02-04 17:42:00,
2013-02-04 12:52:00,46.0,25.0,30.12,SSE,161,5.0,13.0,43,0.00,,,0.00,,2013-02-04 17:52:00,
2013-02-04 13:03:00,46.0,25.0,30.12,SSE,168,3.0,12.0,44,0.00,,,0.00,,2013-02-04 18:03:00,
2013-02-04 13:11:00,46.0,25.0,30.12,SSE,168,3.0,12.0,44,0.00,,,0.00,,2013-02-04 18:11:00,
2013-02-04 13:22:00,47.0,26.0,30.11,WSW,249,2.0,11.0,44,0.00,,,0.00,,2013-02-04 18:22:00,
2013-02-04 13:32:00,48.0,27.0,30.10,SW,236,2.0,10.0,43,0.00,,,0.00,,2013-02-04 18:32:00,
2013-02-04 13:42:00,48.0,27.0,30.10,SW,236,2.0,10.0,43,0.00,,,0.00,,2013-02-04 18:42:00,
2013-02-04 13:52:00,49.0,26.0,30.09,South,171,7.0,13.0,40,0.00,,,0.00,,2013-02-04 18:52:00,
2013-02-04 14:02:00,49.0,26.0,30.09,SSW,213,3.0,9.0,41,0.00,,,0.00,,2013-02-04 19:02:00,
2013-02-04 14:11:00,49.0,26.0,30.09,SSW,213,3.0,9.0,41,0.00,,,0.00,,2013-02-04 19:11:00,
2013-02-04 14:22:00,50.0,26.0,30.08,WSW,246,4.0,12.0,39,0.00,,,0.00,,2013-02-04 19:22:00,
2013-02-04 14:32:00,50.0,26.0,30.08,West,271,2.0,15.0,39,0.00,,,0.00,,2013-02-04 19:32:00,
2013-02-04 14:42:00,50.0,26.0,30.08,West,271,2.0,15.0,39,0.00,,,0.00,,2013-02-04 19:42:00,
2013-02-04 14:52:00,50.0,26.0,30.07,SW,219,3.0,11.0,39,0.00,,,0.00,,2013-02-04 19:52:00,
2013-02-04 15:02:00,51.0,27.0,30.07,West,262,3.0,7.0,39,0.00,,,0.00,,2013-02-04 20:02:00,
2013-02-04 15:12:00,51.0,27.0,30.07,West,262,3.0,7.0,39,0.00,,,0.00,,2013-02-04 20:12:00,
2013-02-04 15:22:00,51.0,27.0,30.07,SSW,198,3.0,11.0,39,0.00,,,0.00,,2013-02-04 20:22:00,
2013-02-04 15:32:00,51.0,26.0,30.07,South,179,4.0,10.0,38,0.00,,,0.00,,2013-02-04 20:32:00,
2013-02-04 15:42:00,51.0,26.0,30.07,South,179,4.0,10.0,38,0.00,,,0.00,,2013-02-04 20:42:00,
2013-02-04 15:52:00,51.0,28.0,30.06,South,181,5.0,10.0,40,0.00,,,0.00,,2013-02-04 20:52:00,
2013-02-04 16:03:00,51.0,27.0,30.06,SSW,207,5.0,8.0,39,0.00,,,0.00,,2013-02-04 21:03:00,
2013-02-04 16:11:00,51.0,27.0,30.06,SSW,207,5.0,8.0,39,0.00,,,0.00,,2013-02-04 21:11:00,
2013-02-04 16:22:00,51.0,28.0,30.05,SW,227,0.0,9.0,40,0.00,,,0.00,,2013-02-04 21:22:00,
2013-02-04 16:32:00,51.0,27.0,30.05,West,260,2.0,8.0,39,0.00,,,0.00,,2013-02-04 21:32:00,
2013-02-04 16:42:00,51.0,27.0,30.05,West,260,2.0,8.0,39,0.00,,,0.00,,2013-02-04 21:42:00,
2013-02-04 16:52:00,50.0,26.0,30.05,SW,217,1.0,6.0,39,0.00,,,0.00,,2013-02-04 21:52:00,
2013-02-04 17:03:00,50.0,28.0,30.05,WSW,252,1.0,8.0,42,0.00,,,0.00,,2013-02-04 22:03:00,
2013-02-04 17:12:00,50.0,28.0,30.05,WSW,252,1.0,8.0,42,0.00,,,0.00,,2013-02-04 22:12:00,
2013-02-04 17:21:00,49.0,27.0,30.06,WSW,254,3.0,8.0,43,0.00,,,0.00,,2013-02-04 22:21:00,
2013-02-04 17:32:00,49.0,27.0,30.06,SW,223,3.0,7.0,42,0.00,,,0.00,,2013-02-04 22:32:00,
2013-02-04 17:42:00,49.0,27.0,30.06,SW,223,3.0,7.0,42,0.00,,,0.00,,2013-02-04 22:42:00,
2013-02-04 17:52:00,48.0,27.0,30.05,SW,228,1.0,7.0,43,0.00,,,0.00,,2013-02-04 22:52:00,
2013-02-04 18:01:00,48.0,27.0,30.05,SW,228,2.0,7.0,44,0.00,,,0.00,,2013-02-04 23:01:00,
2013-02-04 18:11:00,48.0,27.0,30.05,SW,228,2.0,7.0,44,0.00,,,0.00,,2013-02-04 23:11:00,
2013-02-04 18:22:00,47.0,27.0,30.04,SSW,198,3.0,6.0,46,0.00,,,0.00,,2013-02-04 23:22:00,
2013-02-04 18:32:00,46.0,29.0,30.04,South,189,2.0,5.0,52,0.00,,,0.00,,2013-02-04 23:32:00,
2013-02-04 18:52:00,46.0,29.0,30.05,South,190,1.0,6.0,51,0.00,,,0.00,,2013-02-04 23:52:00,
2013-02-04 19:02:00,45.0,29.0,30.05,South,191,2.0,6.0,54,0.00,,,0.00,,2013-02-05 00:02:00,
2013-02-04 19:22:00,44.0,28.0,30.05,SW,219,1.0,9.0,53,0.00,,,0.00,,2013-02-05 00:22:00,
2013-02-04 19:32:00,45.0,28.0,30.06,WNW,302,2.0,6.0,51,0.00,,,0.00,,2013-02-05 00:32:00,
2013-02-04 19:42:00,45.0,28.0,30.06,WNW,302,2.0,6.0,51,0.00,,,0.00,,2013-02-05 00:42:00,
2013-02-04 19:52:00,44.0,27.0,30.06,SW,233,1.0,7.0,51,0.00,,,0.00,,2013-02-05 00:52:00,
2013-02-04 20:02:00,44.0,28.0,30.05,South,179,1.0,6.0,52,0.00,,,0.00,,2013-02-05 01:02:00,
2013-02-04 20:12:00,44.0,28.0,30.05,South,179,1.0,6.0,52,0.00,,,0.00,,2013-02-05 01:12:00,
2013-02-04 20:22:00,43.0,27.0,30.06,SW,227,0.0,4.0,53,0.00,,,0.00,,2013-02-05 01:22:00,
2013-02-04 20:32:00,42.0,27.0,30.06,South,175,1.0,3.0,54,0.00,,,0.00,,2013-02-05 01:32:00,
2013-02-04 20:42:00,42.0,27.0,30.06,South,175,1.0,3.0,54,0.00,,,0.00,,2013-02-05 01:42:00,
2013-02-04 20:52:00,41.0,27.0,30.05,South,184,0.0,1.0,56,0.00,,,0.00,,2013-02-05 01:52:00,
2013-02-04 21:01:00,41.0,27.0,30.05,South,184,0.0,1.0,56,0.00,,,0.00,,2013-02-05 02:01:00,
2013-02-04 21:11:00,41.0,27.0,30.05,South,184,0.0,1.0,56,0.00,,,0.00,,2013-02-05 02:11:00,
2013-02-04 21:22:00,40.0,26.0,30.06,SSW,203,0.0,2.0,58,0.00,,,0.00,,2013-02-05 02:22:00,
2013-02-04 21:32:00,39.0,27.0,30.06,SSW,203,0.0,2.0,61,0.00,,,0.00,,2013-02-05 02:32:00,
2013-02-04 21:42:00,39.0,27.0,30.06,SSW,203,0.0,2.0,61,0.00,,,0.00,,2013-02-05 02:42:00,
2013-02-04 21:52:00,40.0,28.0,30.06,SW,219,1.0,3.0,61,0.00,,,0.00,,2013-02-05 02:52:00,
2013-02-04 22:02:00,39.0,27.0,30.06,SW,228,0.0,4.0,61,0.00,,,0.00,,2013-02-05 03:02:00,
2013-02-04 22:11:00,39.0,27.0,30.06,SW,228,0.0,4.0,61,0.00,,,0.00,,2013-02-05 03:11:00,
2013-02-04 22:21:00,39.0,28.0,30.06,SSW,211,1.0,3.0,65,0.00,,,0.00,,2013-02-05 03:21:00,
2013-02-04 22:32:00,39.0,28.0,30.06,WSW,256,1.0,4.0,64,0.00,,,0.00,,2013-02-05 03:32:00,
2013-02-04 22:42:00,39.0,28.0,30.06,WSW,256,1.0,4.0,64,0.00,,,0.00,,2013-02-05 03:42:00,
2013-02-04 22:52:00,41.0,29.0,30.06,WSW,250,1.0,7.0,62,0.00,,,0.00,,2013-02-05 03:52:00,
2013-02-04 23:01:00,41.0,29.0,30.05,South,184,1.0,7.0,62,0.00,,,0.00,,2013-02-05 04:01:00,
2013-02-04 23:11:00,41.0,29.0,30.05,South,184,1.0,7.0,62,0.00,,,0.00,,2013-02-05 04:11:00,
2013-02-04 23:22:00,41.0,28.0,30.05,SSW,199,2.0,5.0,60,0.00,,,0.00,,2013-02-05 04:22:00,
2013-02-04 23:32:00,41.0,28.0,30.04,SW,228,1.0,6.0,60,0.00,,,0.00,,2013-02-05 04:32:00,
2013-02-04 23:42:00,41.0,28.0,30.04,SW,228,1.0,6.0,60,0.00,,,0.00,,2013-02-05 04:42:00,
2013-02-04 23:52:00,42.0,29.0,30.03,West,274,1.0,9.0,60,0.00,,,0.00,,2013-02-05 04:52:00,